DW4636 Weather Reports


Display with metric or nautical units.
time (UTC)temp
F
wind
direction
speed
MPH
gust
MPH
rain 1hr
in
rain 24hr
in
rain mn
in
humidity
%
barometer
mb
20210802083203 57 306 0.0 0.0 0.00 0.00 0.01 91 1013.2
20210802081643 57 306 0.0 0.0 0.00 0.00 0.00 91 1012.9
20210802080118 57 309 0.0 0.0 0.00 0.00 0.00 91 1012.8
20210802074617 57 302 0.0 0.0 0.00 0.00 0.00 90 1012.5
20210802073155 57 311 0.0 0.0 0.00 0.00 0.00 90 1012.6
20210802071621 57 311 1.0 0.0 0.00 0.00 0.00 90 1012.5
20210802070111 58 309 1.0 0.0 0.00 0.00 0.00 89 1012.3
20210802064640 58 309 0.0 0.0 0.00 0.00 0.00 89 1012.3
20210802063132 58 310 0.0 0.0 0.00 0.00 0.00 89 1012.3
20210802061605 58 310 0.0 0.0 0.00 0.00 0.00 89 1012.2
20210802060135 59 310 0.0 0.0 0.00 0.00 0.00 89 1012.3
20210802054619 59 310 0.0 0.0 0.00 0.00 0.00 89 1012.3
20210802053050 59 310 0.0 0.0 0.00 0.00 0.00 88 1012.4
20210802051540 60 305 0.0 0.0 0.00 0.00 0.00 88 1012.3
20210802050109 60 304 0.0 0.0 0.00 0.00 0.00 88 1012.2
20210802044614 60 304 0.0 0.0 0.00 0.00 0.00 88 1012.2
20210802043126 60 304 0.0 0.0 0.00 0.00 0.00 88 1012.1
20210802041609 61 305 0.0 0.0 0.00 0.00 0.00 88 1012.1
20210802040130 61 301 0.0 0.0 0.00 0.00 0.00 88 1012.1
20210802034620 62 311 0.0 0.0 0.00 0.00 0.00 88 1011.9
20210802033045 62 304 0.0 0.0 0.00 0.00 0.00 88 1011.8
20210802031550 62 304 0.0 0.0 0.00 0.00 0.00 87 1011.7
20210802030038 63 304 0.0 0.0 0.00 0.00 0.00 88 1011.7
20210802024622 63 304 0.0 0.0 0.00 0.00 0.00 88 1011.7
20210802023036 63 304 0.0 0.0 0.00 0.00 0.00 87 1011.7
20210802021522 62 304 0.0 0.0 0.00 0.00 0.00 86 1011.7
20210802020205 63 304 0.0 0.0 0.00 0.00 0.00 85 1011.2
20210802014531 63 304 0.0 0.0 0.00 0.00 0.00 84 1011.1
20210802013041 63 304 0.0 0.0 0.00 0.00 0.00 83 1010.8
20210802011521 64 304 0.0 0.0 0.00 0.00 0.00 81 1010.5
20210802010025 65 304 0.0 0.0 0.00 0.00 0.00 80 1010.3
20210802004519 66 304 0.0 0.0 0.00 0.00 0.00 80 1010.1
20210802003014 66 304 0.0 0.0 0.00 0.00 0.00 79 1009.8
20210802001531 67 308 0.0 0.0 0.00 0.00 0.00 79 1009.4
20210802000008 67 309 1.0 0.0 0.00 0.00 0.00 79 1009.4
20210801234507 68 323 0.0 0.0 0.00 0.00 0.00 79 1009.3
20210801233006 68 327 0.0 0.0 0.00 0.00 0.00 81 1009.1
20210801231511 67 325 0.0 0.0 0.00 0.00 0.00 82 1008.9
20210801230003 66 299 1.0 0.0 0.00 0.00 0.00 83 1009.0
20210801224513 65 300 1.0 0.0 0.00 0.00 0.00 85 1008.8
20210801223007 65 304 1.0 0.0 0.00 0.00 0.00 84 1009.1
20210801221506 65 306 1.0 0.0 0.00 0.00 0.00 83 1009.3
20210801220001 65 306 1.0 0.0 0.00 0.00 0.00 82 1009.3
20210801214656 65 331 1.0 0.0 0.00 0.00 0.00 80 1009.3
20210801213306 66 304 1.0 0.0 0.00 0.00 0.00 78 1009.0
20210801211827 67 38 0.0 0.0 0.00 0.00 0.00 76 1008.8
20210801210310 67 21 2.0 0.0 0.00 0.00 0.00 71 1008.7
20210801204739 68 5 2.0 0.0 0.00 0.00 0.00 69 1008.6
20210801203407 69 292 3.0 0.0 0.00 0.00 0.00 67 1008.6
20210801201641 70 309 3.0 0.0 0.00 0.00 0.00 65 1008.8
20210801200150 71 5 5.0 0.0 0.00 0.00 0.00 63 1008.5
20210801194653 73 55 4.0 0.0 0.00 0.00 0.00 58 1008.3
20210801193142 75 27 4.0 0.0 0.00 0.00 0.00 53 1008.1
20210801191726 77 312 3.0 0.0 0.00 0.00 0.00 54 1007.7
20210801190131 78 297 3.0 0.0 0.00 0.00 0.00 53 1007.6
20210801184652 78 327 2.0 0.0 0.00 0.00 0.00 54 1007.6
20210801183152 77 288 3.0 0.0 0.00 0.00 0.00 55 1007.8
20210801181724 77 301 2.0 0.0 0.00 0.00 0.00 53 1007.7
20210801180126 78 306 2.0 0.0 0.00 0.00 0.00 51 1007.6
20210801174616 78 309 3.0 0.0 0.00 0.00 0.00 49 1007.7
20210801173222 79 355 3.0 0.0 0.00 0.00 0.00 53 1007.6
20210801171645 79 338 3.0 0.0 0.00 0.00 0.00 49 1007.6
20210801170142 79 316 3.0 0.0 0.00 0.00 0.00 51 1007.5
20210801164706 79 272 1.0 0.0 0.00 0.00 0.00 55 1007.8
20210801163108 79 76 2.0 0.0 0.00 0.00 0.00 54 1007.6
20210801161626 78 300 1.0 0.0 0.00 0.00 0.00 56 1007.8
20210801160055 77 305 2.0 0.0 0.00 0.00 0.00 59 1008.0
20210801154615 76 155 0.0 0.0 0.00 0.00 0.00 59 1008.3
20210801153053 76 46 1.0 0.0 0.00 0.00 0.00 62 1008.4
20210801151557 75 161 1.0 0.0 0.00 0.00 0.00 63 1008.4
20210801150056 76 308 1.0 0.0 0.00 0.00 0.00 62 1008.4
20210801144609 76 150 1.0 0.0 0.00 0.00 0.00 64 1008.3
20210801143107 74 307 1.0 0.0 0.00 0.00 0.00 67 1008.2
20210801141528 73 304 2.0 0.0 0.00 0.00 0.00 69 1008.3
20210801140018 71 297 1.0 0.0 0.00 0.00 0.00 73 1008.3
20210801134517 69 282 1.0 0.0 0.00 0.00 0.00 76 1008.4
20210801133017 68 293 1.0 0.0 0.00 0.00 0.00 80 1008.5
20210801131504 66 300 2.0 0.0 0.00 0.00 0.00 83 1008.6
20210801130148 65 136 0.0 0.0 0.00 0.00 0.00 87 1008.5
20210801124737 63 170 1.0 0.0 0.00 0.00 0.00 90 1008.7
20210801123309 61 163 2.0 0.0 0.00 0.00 0.00 92 1008.6
20210801121705 60 305 0.0 0.0 0.00 0.00 0.00 91 1008.8
20210801120214 59 306 0.0 0.0 0.00 0.00 0.00 90 1008.5
20210801114620 58 306 0.0 0.0 0.00 0.00 0.00 89 1008.5
20210801113138 58 306 0.0 0.0 0.00 0.00 0.00 89 1008.5
20210801111548 58 306 0.0 0.0 0.00 0.00 0.00 88 1008.4
20210801110044 58 306 0.0 0.0 0.00 0.00 0.00 88 1008.4
20210801104556 58 306 0.0 0.0 0.00 0.00 0.00 88 1008.5
20210801103050 58 306 0.0 0.0 0.00 0.00 0.00 88 1008.6
20210801101534 58 306 0.0 0.0 0.00 0.00 0.00 88 1008.6
20210801100113 58 306 0.0 0.0 0.00 0.00 0.00 88 1008.6
20210801094626 58 306 0.0 0.0 0.00 0.00 0.00 88 1008.7
20210801093102 58 306 0.0 0.0 0.00 0.00 0.00 88 1008.7
20210801091617 58 306 0.0 0.0 0.00 0.00 0.00 87 1008.8
20210801090113 58 306 0.0 0.0 0.00 0.00 0.00 87 1009.0
20210801084614 58 306 0.0 0.0 0.00 0.00 0.00 87 1009.1